Weather History for KFXY - October, 2012

Change the Weather History Date:

Sunday, October 21, 2012

  Actual Average Record
Temperature  
Mean Temperature 56 °F -  
Max Temperature 73 °F 60 °F 73 °F (2012)
Min Temperature 39 °F 37 °F 23 °F (2011)
Degree Days  
Heating Degree Days 9    
Growing Degree Days 6 (Base 50)    
Moisture  
Dew Point 44 °F    
Average Humidity 72    
Maximum Humidity 93    
Minimum Humidity 43    
Precipitation  
Precipitation 0.00 in - - ()
Sea Level Pressure  
Sea Level Pressure 29.81 in    
Wind  
Wind Speed 10 mph (SE)    
Max Wind Speed 20 mph    
Max Gust Speed 24 mph    
Visibility 10 miles    
Events      
Averages and records for this station are not official NWS values.
T = Trace of Precipitation, MM = Missing Value Source: NWS Daily Summary

Daily Weather History Graph

Daily Weather History Graph

Search for Another Location

Airport or City:

Trip Planner

Search our weather history database for the weather conditions in past years. The results will help you decide how hot, cold, wet, or windy it might be!

Date:

Astronomy

Oct. 21, 2012 Rise Set
Actual Time 7:36 AM CDT 6:21 PM CDT
Civil Twilight 7:07 AM CDT 6:50 PM CDT
Nautical Twilight 6:33 AM CDT 7:23 PM CDT
Astronomical Twilight 6:01 AM CDT 7:56 PM CDT
Moon 2:00 PM CDT (10/21) No Moon Set
Length of Visible Light 11h 42m
Length of Day
10h 44m
Waxing Crescent, 45% of the Moon is Illuminated
Oct 21
Waxing Crescent
Oct 21
First Quarter
Oct 29
Full
Nov 6
Last Quarter
Nov 13
New

Hourly Weather History & Observations

Time (CDT) Temp. Windchill Dew Point Humidity Pressure Visibility Wind Dir Wind Speed Gust Speed Precip Events Conditions
12:15 AM 41.0 °F 35.8 °F 39.2 °F 93% 29.82 in 10.0 mi SSE 8.1 mph - N/A   Clear
12:35 AM 41.0 °F 35.8 °F 39.2 °F 93% 29.82 in 10.0 mi SSE 8.1 mph - N/A   Clear
12:55 AM 42.8 °F 37.5 °F 39.2 °F 87% 29.83 in 10.0 mi SE 9.2 mph - N/A   Clear
1:15 AM 42.8 °F 37.5 °F 39.2 °F 87% 29.83 in 10.0 mi SE 9.2 mph - N/A   Clear
1:35 AM 41.0 °F 35.8 °F 37.4 °F 87% 29.82 in 10.0 mi SSE 8.1 mph - N/A   Clear
1:55 AM 41.0 °F 35.8 °F 37.4 °F 87% 29.82 in 10.0 mi SSE 8.1 mph - N/A   Clear
2:15 AM 41.0 °F 35.8 °F 37.4 °F 87% 29.82 in 10.0 mi SE 8.1 mph - N/A   Clear
2:35 AM 41.0 °F 35.2 °F 37.4 °F 87% 29.81 in 10.0 mi SE 9.2 mph - N/A   Clear
2:55 AM 42.8 °F 37.0 °F 39.2 °F 87% 29.81 in 10.0 mi SE 10.4 mph - N/A   Clear
3:15 AM 42.8 °F 37.5 °F 39.2 °F 87% 29.81 in 10.0 mi SE 9.2 mph - N/A   Clear
3:35 AM 42.8 °F 37.5 °F 39.2 °F 87% 29.80 in 10.0 mi SE 9.2 mph - N/A   Clear
3:55 AM 41.0 °F 34.7 °F 37.4 °F 87% 29.80 in 10.0 mi SE 10.4 mph - N/A   Clear
4:15 AM 41.0 °F 35.8 °F 37.4 °F 87% 29.81 in 10.0 mi SE 8.1 mph - N/A   Clear
4:35 AM 41.0 °F 35.2 °F 37.4 °F 87% 29.81 in 10.0 mi SE 9.2 mph - N/A   Clear
4:55 AM 41.0 °F 35.8 °F 37.4 °F 87% 29.81 in 10.0 mi SE 8.1 mph - N/A   Clear
5:15 AM 41.0 °F 36.4 °F 37.4 °F 87% 29.81 in 10.0 mi SE 6.9 mph - N/A   Clear
5:35 AM 41.0 °F 35.8 °F 37.4 °F 87% 29.81 in 7.0 mi ESE 8.1 mph - N/A   Clear
5:55 AM 41.0 °F 35.2 °F 37.4 °F 87% 29.80 in 7.0 mi ESE 9.2 mph - N/A   Clear
6:15 AM 41.0 °F 35.2 °F 37.4 °F 87% 29.81 in 7.0 mi SE 9.2 mph - N/A   Clear
6:35 AM 39.2 °F 33.6 °F 37.4 °F 93% 29.82 in 7.0 mi SE 8.1 mph - N/A   Clear
6:55 AM 41.0 °F 35.2 °F 37.4 °F 87% 29.81 in 7.0 mi ESE 9.2 mph - N/A   Clear
7:15 AM 41.0 °F 34.3 °F 37.4 °F 87% 29.82 in 10.0 mi ESE 11.5 mph 16.1 mph N/A   Clear
7:35 AM 41.0 °F 34.7 °F 37.4 °F 87% 29.81 in 7.0 mi SE 10.4 mph - N/A   Clear
7:55 AM 41.0 °F 34.3 °F 37.4 °F 87% 29.81 in 10.0 mi SE 11.5 mph - N/A   Clear
8:15 AM 42.8 °F 36.2 °F 39.2 °F 87% 29.81 in 10.0 mi SE 12.7 mph - N/A   Clear
8:35 AM 42.8 °F 36.2 °F 39.2 °F 87% 29.81 in 10.0 mi SE 12.7 mph - N/A   Clear
8:55 AM 44.6 °F 38.1 °F 41.0 °F 87% 29.80 in 10.0 mi SE 13.8 mph - N/A   Clear
9:15 AM 44.6 °F 37.8 °F 41.0 °F 87% 29.80 in 10.0 mi SE 15.0 mph - N/A   Clear
9:55 AM 50.0 °F - 42.8 °F 76% 29.82 in 10.0 mi South 13.8 mph - N/A   Clear
10:15 AM 50.0 °F - 42.8 °F 76% 29.81 in 10.0 mi SSE 15.0 mph - N/A   Clear
10:55 AM 53.6 °F - 42.8 °F 67% 29.80 in 10.0 mi SSE 16.1 mph 23.0 mph N/A   Clear
11:15 AM 55.4 °F - 44.6 °F 67% 29.80 in 10.0 mi SE 16.1 mph 20.7 mph N/A   Clear
12:15 PM 62.6 °F - 46.4 °F 55% 29.79 in 10.0 mi SSE 17.3 mph - N/A   Clear
12:35 PM 64.4 °F - 46.4 °F 52% 29.79 in 10.0 mi SSE 17.3 mph 23.0 mph N/A   Clear
12:55 PM 64.4 °F - 46.4 °F 52% 29.79 in 10.0 mi SSE 18.4 mph 24.2 mph N/A   Clear
1:15 PM 66.2 °F - 46.4 °F 49% 29.79 in 10.0 mi SSE 18.4 mph 23.0 mph N/A   Clear
1:35 PM 68.0 °F - 46.4 °F 46% 29.79 in 10.0 mi SSE 19.6 mph - N/A   Clear
1:55 PM 69.8 °F - 46.4 °F 43% 29.78 in 10.0 mi SSE 16.1 mph 23.0 mph N/A   Clear
2:15 PM 69.8 °F - 48.2 °F 46% 29.78 in 10.0 mi South 18.4 mph - N/A   Clear
2:35 PM 71.6 °F - 48.2 °F 43% 29.78 in 10.0 mi South 15.0 mph 20.7 mph N/A   Clear
2:55 PM 71.6 °F - 50.0 °F 46% 29.78 in 10.0 mi South 15.0 mph - N/A   Clear
3:35 PM 71.6 °F - 50.0 °F 46% 29.78 in 10.0 mi SSE 12.7 mph - N/A   Clear
3:55 PM 73.4 °F - 50.0 °F 44% 29.78 in 10.0 mi South 15.0 mph 19.6 mph N/A   Clear
4:15 PM 73.4 °F - 50.0 °F 44% 29.79 in 10.0 mi South 13.8 mph - N/A   Clear
4:35 PM 71.6 °F - 50.0 °F 46% 29.79 in 10.0 mi South 11.5 mph - N/A   Clear
5:35 PM 71.6 °F - 51.8 °F 50% 29.79 in 10.0 mi South 9.2 mph - N/A   Clear
5:55 PM 69.8 °F - 51.8 °F 53% 29.80 in 10.0 mi SSE 8.1 mph - N/A   Clear
6:15 PM 66.2 °F - 51.8 °F 60% 29.81 in 10.0 mi SSE 6.9 mph - N/A   Clear
6:35 PM 62.6 °F - 50.0 °F 63% 29.81 in 10.0 mi SSE 5.8 mph - N/A   Clear
6:55 PM 60.8 °F - 50.0 °F 68% 29.81 in 10.0 mi SE 8.1 mph - N/A   Clear
7:15 PM 59.0 °F - 50.0 °F 72% 29.82 in 10.0 mi SE 6.9 mph - N/A   Clear
7:35 PM 57.2 °F - 50.0 °F 77% 29.82 in 10.0 mi SE 9.2 mph - N/A   Clear
7:55 PM 59.0 °F - 50.0 °F 72% 29.82 in 10.0 mi SSE 10.4 mph - N/A   Clear
8:15 PM 60.8 °F - 50.0 °F 68% 29.83 in 10.0 mi SSE 9.2 mph - N/A   Clear
8:35 PM 60.8 °F - 50.0 °F 68% 29.84 in 10.0 mi SE 6.9 mph - N/A   Clear
8:55 PM 60.8 °F - 50.0 °F 68% 29.84 in 10.0 mi SE 9.2 mph - N/A   Scattered Clouds
9:35 PM 59.0 °F - 50.0 °F 72% 29.85 in 10.0 mi SE 6.9 mph - N/A   Mostly Cloudy
9:55 PM 59.0 °F - 50.0 °F 72% 29.86 in 10.0 mi ESE 6.9 mph - N/A   Overcast
10:15 PM 60.8 °F - 50.0 °F 68% 29.85 in 10.0 mi ESE 6.9 mph - N/A   Mostly Cloudy
10:35 PM 59.0 °F - 50.0 °F 72% 29.85 in 10.0 mi ESE 4.6 mph - N/A   Mostly Cloudy
10:55 PM 59.0 °F - 50.0 °F 72% 29.86 in 10.0 mi North 4.6 mph - N/A   Scattered Clouds
11:15 PM 60.8 °F - 50.0 °F 68% 29.86 in 10.0 mi North 6.9 mph - N/A   Mostly Cloudy
11:35 PM 57.2 °F - 48.2 °F 72% 29.87 in 10.0 mi North 5.8 mph - N/A   Overcast
11:55 PM 55.4 °F - 46.4 °F 72% 29.87 in 10.0 mi North 8.1 mph - N/A   Overcast